Weather Roundup
Issued by NWS

Home | Current Version | Previous Version | Text Only | Print | Product List | Glossary On
Versions: 1 2 3 4 5 6 7 8 9 10 11 12 13 14 15 16 17 18 19 20 21 22 23 24 25 26 27 28 29 30 31 32 33 34 35 36 37 38 39 40 41 42 43 44 45 46 47 48 49 50
000
NZUS93 KARX 102359
HRRWXR

CURRENT HOURLY OBSERVATIONS ACROSS
MUCH OF THE UPPER MISSISSIPPI VALLEY
NATIONAL WEATHER SERVICE LA CROSSE WI
600 PM CST SUN DEC 10 2017


...SOUTHEAST MINNESOTA...


CITY           SKY/WX    TMP DP  RH WIND       PRES   REMARKS
ROCHESTER      CLOUDY    27  21  78 NW9       30.04R WCI  18
ROCHESTER/MAYO CLOUDY    28  22  76 W8        30.05R WCI  20
WINONA         CLOUDY    30  23  74 CALM      30.08R
AUSTIN         CLEAR     27  21  80 CALM      30.05R
ALBERT LEA     CLOUDY    27  21  80 CALM      30.05S
DODGE CENTER   CLOUDY    27  21  80 W7        30.05R WCI  19
PRESTON        CLOUDY    27  21  79 NW6       30.05R WCI  20
OWATONNA       NOT AVBL
FARIBAULT      CLEAR     21  19  93 CALM      30.06S
$$

...ELSEWHERE IN MINNESOTA...


CITY           SKY/WX    TMP DP  RH WIND       PRES   REMARKS
MINNEAPOLIS    PTCLDY    27  21  78 CALM      30.05S
INTNL FALLS    CLOUDY     3   0  87 CALM      29.97F
DULUTH         CLOUDY    14  10  84 NW5       29.99F WCI   6
RED WING       CLOUDY    27  18  69 CALM      30.06R
REDWOOD FALLS  CLOUDY    34  23  64 N3        30.05S
MANKATO        CLOUDY    28  23  81 CALM      30.05S
WORTHINGTON    CLOUDY    35  28  75 CALM      30.05S
FAIRMONT       CLOUDY    33  26  75 NW5       30.06S WCI  29
$$

...SOUTHWEST WISCONSIN...


CITY           SKY/WX    TMP DP  RH WIND       PRES   REMARKS
LA CROSSE      CLOUDY    29  20  69 N6        30.08R WCI  23
PRAIRIE DU CHI PTCLDY    28  19  71 W5        30.07R WCI  22
BOSCOBEL       CLOUDY    28  20  71 NW3       30.08R
LONE ROCK      CLOUDY    28  20  71 NW3       30.07R
PLATTEVILLE    CLOUDY    29  23  80 NW5       30.05R WCI  23
FORT MC COY    CLOUDY    26  20  78 NW3       30.07R
CAMP DOUGLAS   CLOUDY    26  17  70 NW9       30.05R WCI  17
MAUSTON-NEW LI CLOUDY    27  19  74 NW6       30.03R WCI  20
VIROQUA        CLOUDY    25  21  84 NW8       30.03R WCI  16
WIS DELLS      CLOUDY    27  18  69 NW5       30.03R WCI  21
$$

...ELSEWHERE IN WISCONSIN...


CITY           SKY/WX    TMP DP  RH WIND       PRES   REMARKS
MILWAUKEE      CLOUDY    28  19  69 NW10      30.03R WCI  19
MADISON        CLOUDY    27  18  69 NW9G17    30.04R WCI  18
GREEN BAY      CLOUDY    26  17  68 N8        30.02R WCI  18
EAU CLAIRE     CLOUDY    23  17  78 CALM      30.04S
BLACK RVR FLS  CLOUDY    26  18  69 CALM      30.05R
MEDFORD        CLOUDY    20  13  73 N8        29.99R WCI  11
WAUSAU         CLOUDY    22  13  68 N12       30.00R WCI  10
WIS RAPIDS     CLOUDY    24  16  71 NW10      30.04R WCI  14
MARSHFIELD     CLOUDY    22  15  75 NW12      30.01R WCI  10
RICE LAKE      CLOUDY    19  15  86 CALM      30.05R
$$

...NORTHEAST IOWA...


CITY           SKY/WX    TMP DP  RH WIND       PRES   REMARKS
WATERLOO       CLEAR     26  19  74 NW5       30.06R WCI  20
DUBUQUE        CLOUDY    25  19  78 N6        30.05R WCI  18
DECORAH        CLOUDY    27  21  80 CALM      30.04R
MASON CITY     MOCLDY    26  19  74 W3        30.07R
CHARLES CITY   CLOUDY    27  21  80 NW6       30.07R WCI  20
OELWEIN        PTCLDY    27  23  86 N7        30.06R WCI  19
$$

...ELSEWHERE IN IOWA...


CITY           SKY/WX    TMP DP  RH WIND       PRES   REMARKS
DES MOINES     PTCLDY    41  25  53 NW6       30.09R
IOWA CITY      CLEAR     33  22  63 NW3       30.08S
FORT DODGE     CLOUDY    35  24  64 NW3       30.08R
MARSHALLTOWN   CLEAR     30  21  69 NW8       30.07R WCI  22
CEDAR RAPIDS   CLEAR     28  21  75 CALM      30.06R
$$

...NORTHERN ILLINOIS...


CITY           SKY/WX    TMP DP  RH WIND       PRES   REMARKS
CHICAGO-OHARE  CLOUDY    31  19  61 NW12      30.03R WCI  22
CHICAGO-MIDWAY MOCLDY    31  21  66 NW9       30.03R WCI  23
MOLINE         CLOUDY    33  23  66 NW8       30.07  WCI  26
ROCKFORD       CLOUDY    30  20  66 NW8       30.07R WCI  22
PEORIA         CLEAR     33  23  66 NW5       30.07R WCI  29
$$

NOTE: "FAIR" INDICATES FEW OR NO CLOUDS BELOW 12,000 FEET WITH NO
SIGNIFICANT WEATHER AND/OR OBSTRUCTIONS TO VISIBILITY. WIND
SPEEDS ARE IN MILES-PER-HOUR.




USA.gov is the U.S. government's official web portal to all federal, state and local government web resources and services.